Location: La Brionne
(46.1728°N, 1.7849°E)
Time: 17:11:33
(UTC+00:00)

USA 215 - Pass Details

Date: 31 October 2021
Orbit: 1099 x 1109 km, 123.0° (Epoch: 20 November)

Event Time Altitude Azimuth Distance (km) Brightness Sun altitude
Exits shadow 19:19:49 36° 29° (NNE) 1,686 4.0 -28.1°
Maximum altitude 19:22:15 53° 336° (NNW) 1,339 3.8 -28.5°
Drops below altitude 10° 19:28:32 10° 262° (W) 2,961 6.3 -29.6°
Sets 19:31:04 0° 258° (WSW) 3,919 7.1 -30.0°
